Location: 22
(39.7117°N, 89.5929°W)
Time: 19:29:17
(UTC-05:00)

Gurwin Techsat 1B - Pass Details

Date: 02 April 2023
Orbit: 811 x 813 km, 98.9° (Epoch: 06 June)

Event Time Altitude Azimuth Distance (km) Brightness Sun altitude
Rises 03:24:18 0° 20° (NNE) 3,345 12.7 -34.7°
Reaches altitude 10° 03:26:45 10° 26° (NNE) 2,409 11.8 -34.4°
Enters shadow 03:30:53 42° 69° (ENE) 1,156 9.7 -33.8°
